Regional Weather Roundup
Issued by NWS Newport/Morehead, NC

Current Version | Previous Version | Graphics & Text | Print | Product List | Glossary Off
Versions: 1 2 3 4 5 6 7 8 9 10 11 12 13 14 15 16 17 18 19 20 21 22 23 24 25 26 27 28 29 30 31 32 33 34 35 36 37 38 39 40 41 42 43 44 45 46 47 48 49 50

000
ASUS42 KMHX 130310
RWRMHX
WEATHER ROUNDUP FOR EASTERN NORTH CAROLINA
NATIONAL WEATHER SERVICE NEWPORT/MOREHEAD CITY NC
1100 PM EDT SAT JUL 12 2014

NOTE: "FAIR" INDICATES FEW OR NO CLOUDS BELOW 12,000 FEET
WITH NO SIGNIFICANT WEATHER AND/OR OBSTRUCTIONS TO VISIBILITY

NCZ015>017-031-032-045>047-102-103-130400-
NORTH COAST

CITY           SKY/WX    TMP DP  RH WIND       PRES   REMARKS
EDENTON        CLEAR     74  70  86 SE8       30.17S
ELIZABETH CITY CLEAR     72  69  90 SE3       30.17F
KITTY HAWK     CLEAR     73  70  90 SE3       30.16F
MANTEO         NOT AVBL

$$

NCZ045>047-081-094-103-104-130400-
CENTRAL COAST

CITY           SKY/WX    TMP DP  RH WIND       PRES   REMARKS
FRISCO         PTCLDY    73  70  90 CALM      30.18S
SWANQUARTER      N/A     73 N/A N/A E3        30.15S

$$

NCZ095-097-098-100-101-130400-
SOUTHERN COAST

CITY           SKY/WX    TMP DP  RH WIND       PRES   REMARKS
BEAUFORT       CLEAR     74  70  87 CALM      30.18S
CEDAR ISLAND     N/A     75 N/A N/A S1        30.21S
JACKSONVILLE   CLEAR     75  72  90 CALM      30.17S
NEWPORT        NOT AVBL
PINEY ISLAND   CLEAR     78  74  87 SE5       30.17F
WILMINGTON     CLEAR     78  73  84 CALM      30.18S


$$

NCZ011>013-027>030-043-044-078>080-089-090>093-098-130400-
COASTAL PLAIN

CITY           SKY/WX    TMP DP  RH WIND       PRES   REMARKS
AHOSKIE        CLEAR     73  69  89 CALM      30.17S
CLINTON        CLEAR     76  74  92 CALM      30.16S
ELIZABETHTOWN  CLEAR     76  73  89 SE6       30.17R
GOLDSBORO      NOT AVBL
GREENVILLE     CLEAR     77  72  83 S6        30.17F
HAVELOCK       CLEAR     73  69  87 MISG      30.19S
KENANSVILLE    CLEAR     75  71  87 SE3       30.17F
KINSTON        CLEAR     76  71  84 S7        30.17S
NEW BERN       CLEAR     75  71  87 SE3       30.18F
RICHLANDS      CLEAR     72  68  88 CALM      30.18S
ROANOKE RAPIDS NOT AVBL
ROCKY MOUNT    CLEAR     76  70  82 CALM      30.16S
WASHINGTON     CLEAR     76  71  84 CALM      30.18S
WHITEVILLE     CLEAR     76  72  86 CALM      30.17R

$$

AMZ130-135-150-152-154-156-158-170-250-252-270-ANZ085-086-088-633-658-670-130400-
MARINE OBSERVATIONS

STATION/POSITION TIME  TEMP    WIND        PRES    WAVE   SWELL
                       AIR SEA DIR/SP/G            HT/PER HT/PER
                 (UTC) (F)     (DEG/KT/KT) (MB)    (FT/S) (FT/S)
CHESAPEAKE LIGHT NOT AVBL
BUOY 44014       0300   74 77  110/ 10/ 10 1021.3    2/ 7   2/ 7
DUCK             0300   75 72  120/  8/  9 1020.9
2E DUCK          0300                        N/A     1/ 7
OREGON INLET     0300   74 82   80/  3/  4 1021.7
BUOY 44095       0300      75                N/A     2/ 6
HATTERAS CG      0300   77 83  130/  3/  4 1022.3
DIAMOND BUOY     0300             CALM     1021.8    2/ 6
17S OCRACOKE INL NOT AVBL
CAPE LOOKOUT     0200   79     160/  4/  5 1021.8
BEAUFORT LAB     0300   79 82  150/  2/  3 1021.5
30 SE NEW RIVER  0300   80 82  150/  6/  6 1022.3    2/ 7   2/ 7
5 SE WRIGHTSVILL 0200   77 82  180/  8/ 10 1022.2
FRYING PAN BUOY  NOT AVBL
BUOY 41001       NOT AVBL
BUOY 41002       0154   81 83  170/  4/  6 1022.5    2/ 7   2/ 7
BUOY 41004       0300   81 82  150/ 10/ 10 1021.0    2/ 7   2/ 7

$$



USA.gov is the U.S. government's official web portal to all federal, state and local government web resources and services.